Terug naar catalogus

IRIDIUM 33 DEB

ActiefPO
NORAD 34529·DEBRIS·🇺🇸 United States

Gelanceerd Sep 14, 1997 vanaf Baikonur Cosmodrome

Loading…

Volgende Passages (komende 24 uur)

TLE

VersSource: Space-Track

Epoch: Sep 13, 2026, 12:22 UTC

1 34529U 97051HW  26256.51560456  .00000370  00000-0  10911-3 0  9993
2 34529  86.3583 278.2573 0005914  40.2282 319.9355 14.40931361920984

Volg IRIDIUM 33 DEB in realtime met AllMySat

Download on the App Store